Location: Cantaing
(50.1487°N, 3.1675°E)
Time: 19:12:51
(UTC+00:00)

Cosmos 2263 Rocket - Pass Details

Date: 14 January 2026
Orbit: 821 x 849 km, 71.0° (Epoch: 13 February)

Event Time Altitude Azimuth Distance (km) Brightness Sun altitude
Exits shadow 05:10:00 12° 348° (NNW) 2,354 4.3 -23.5°
Drops below altitude 10° 05:11:16 10° 1° (N) 2,482 4.6 -23.3°
Sets 05:15:31 0° 31° (NNE) 3,423 5.7 -22.6°
